Weather History for Klawock, AK

Change the Weather History Date:

Saturday, March 22, 2014

  Actual Average Record
Temperature  
Mean Temperature 39 °F -  
Max Temperature 46 °F 42 °F 61 °F (1998)
Min Temperature 32 °F 31 °F 23 °F (2013)
Degree Days  
Heating Degree Days 26    
Moisture  
Dew Point 28 °F    
Average Humidity 69    
Maximum Humidity 92    
Minimum Humidity 40    
Precipitation  
Precipitation 0.01 in - - ()
Sea Level Pressure  
Sea Level Pressure 30.21 in    
Wind  
Wind Speed 9 mph (NNE)    
Max Wind Speed 16 mph    
Max Gust Speed 21 mph    
Visibility 10 miles    
Events      
Averages and records for this station are not official NWS values.
T = Trace of Precipitation, MM = Missing Value Source: NWS Daily Summary

Daily Weather History Graph

Daily Weather History Graph

Search for Another Location

Airport:

Trip Planner

Search our weather history database for the weather conditions in past years. The results will help you decide how hot, cold, wet, or windy it might be!

Date:

Astronomy

Mar. 22, 2014 Rise Set
Actual Time 6:48 AM AKDT 7:10 PM AKDT
Civil Twilight 6:12 AM AKDT 7:47 PM AKDT
Nautical Twilight 5:28 AM AKDT 8:31 PM AKDT
Astronomical Twilight 4:41 AM AKDT 9:18 PM AKDT
Moon 1:27 AM AKDT 9:47 AM AKDT
Length of Visible Light 13h 35m
Length of Day
12h 21m
Waning Gibbous, 64% of the Moon is Illuminated
Mar 22
Waning Gibbous
Mar 23
Last Quarter
Mar 30
New
Apr 7
First Quarter
Apr 14
Full

Hourly Weather History & Observations

Time (AKDT) Temp. Windchill Dew Point Humidity Pressure Visibility Wind Dir Wind Speed Gust Speed Precip Events Conditions
12:53 AM 35.1 °F 27.4 °F 30.9 °F 85% 30.09 in 10.0 mi NNE 10.4 mph 20.7 mph 0.01 in   Overcast
1:53 AM 34.0 °F 26.0 °F 32.0 °F 92% 30.09 in 10.0 mi NNE 10.4 mph - 0.00 in   Overcast
2:53 AM 34.0 °F 24.6 °F 30.9 °F 89% 30.09 in 10.0 mi NNE 13.8 mph - 0.00 in   Mostly Cloudy
3:53 AM 34.0 °F 23.8 °F 30.9 °F 89% 30.11 in 10.0 mi NNE 16.1 mph - N/A   Overcast
4:53 AM 34.0 °F 25.0 °F 30.0 °F 85% 30.12 in 10.0 mi NNE 12.7 mph 20.7 mph N/A   Overcast
5:53 AM 34.0 °F 26.0 °F 30.0 °F 85% 30.13 in 10.0 mi NNE 10.4 mph - N/A   Overcast
6:53 AM 33.1 °F 27.7 °F 28.9 °F 85% 30.15 in 10.0 mi Variable 5.8 mph - N/A   Partly Cloudy
7:53 AM 33.1 °F 28.7 °F 28.9 °F 85% 30.16 in 10.0 mi Variable 4.6 mph - N/A   Clear
8:53 AM 36.0 °F - 28.9 °F 76% 30.19 in 10.0 mi Calm Calm - N/A   Clear
9:53 AM 39.0 °F 34.0 °F 28.9 °F 67% 30.20 in 10.0 mi NE 6.9 mph - N/A   Clear
10:53 AM 42.1 °F 35.7 °F 28.0 °F 58% 30.21 in 10.0 mi NNE 11.5 mph - N/A   Clear
11:53 AM 44.1 °F 40.1 °F 28.0 °F 53% 30.23 in 10.0 mi NE 6.9 mph - N/A   Clear
12:53 PM 45.0 °F 39.3 °F 27.0 °F 49% 30.24 in 10.0 mi NNE 11.5 mph - N/A   Clear
1:53 PM 46.9 °F - 26.1 °F 44% 30.25 in 10.0 mi NNE 11.5 mph - N/A   Clear
2:53 PM 46.9 °F - 27.0 °F 46% 30.25 in 10.0 mi East 5.8 mph - N/A   Clear
3:53 PM 46.0 °F 43.9 °F 23.0 °F 40% 30.25 in 10.0 mi North 4.6 mph - N/A   Clear
4:53 PM 46.0 °F 43.9 °F 23.0 °F 40% 30.25 in 10.0 mi Variable 4.6 mph - N/A   Clear
5:53 PM 45.0 °F 43.5 °F 23.0 °F 42% 30.25 in 10.0 mi Variable 3.5 mph - N/A   Clear
6:53 PM 39.0 °F 35.7 °F 25.0 °F 57% 30.27 in 10.0 mi NE 4.6 mph - N/A   Clear
7:53 PM 35.1 °F 31.0 °F 26.1 °F 70% 30.28 in 10.0 mi NE 4.6 mph - N/A   Clear
8:53 PM 32.0 °F 25.6 °F 27.0 °F 82% 30.29 in 10.0 mi NNE 6.9 mph - N/A   Clear
9:53 PM 32.0 °F 27.5 °F 27.0 °F 82% 30.30 in 10.0 mi NNE 4.6 mph - N/A   Clear
10:53 PM 33.1 °F 25.5 °F 27.0 °F 78% 30.31 in 10.0 mi NNE 9.2 mph - N/A   Unknown
11:53 PM 32.0 °F 24.2 °F 26.1 °F 79% 30.32 in 10.0 mi NE 9.2 mph - N/A   Clear